Regional Weather Roundup
Issued by NWS Northern Indiana

Home | Current Version | Previous Version | Text Only | Print | Product List | Glossary On
Versions: 1 2 3 4 5 6 7 8 9 10 11 12 13 14 15 16 17 18 19 20 21 22 23 24 25 26 27 28 29 30 31 32 33 34 35 36 37 38 39 40 41 42 43 44 45 46 47 48 49 50
000
ASUS43 KIWX 301910
RWRIWX

KIWX WEATHER ROUNDUP
NATIONAL WEATHER SERVICE NORTHERN INDIANA
300 PM EDT THU OCT 30 2014

NOTE: "FAIR" INDICATES FEW OR NO CLOUDS BELOW 12,000 FEET WITH NO
SIGNIFICANT WEATHER AND/OR OBSTRUCTIONS TO VISIBILITY.

* THESE STATIONS ARE NOT UNDER NWS QUALITY CONTROL. THEY ALSO MAY NOT
  REPORT WEATHER SUCH AS PRECIPITATION OR FOG.

INZ001>027-302000-
NORTHERN INDIANA

CITY           SKY/WX    TMP DP  RH WIND       PRES   REMARKS
GARY*          PTSUNNY   54  34  47 W9        30.09F
VALPARAISO     PTSUNNY   50  33  52 SW10      30.08F
MICHIGAN CITY* PTSUNNY   50  32  50 SW8       30.09F
LAPORTE*       PTSUNNY   51  35  53 SW9       30.09F
KNOX*          PTSUNNY   51  32  47 SW10      30.09F
SOUTH BEND     PTSUNNY   51  32  48 W8        30.09F
ELKHART*       CLOUDY    50  32  50 SW7       30.08F
GOSHEN         CLOUDY    50  35  56 S9        30.08F
MONTICELLO*    MOSUNNY   51  35  53 W6        30.09F
LOGANSPORT*    MOSUNNY   52  32  46 SW5       30.09F
ROCHESTER*     PTSUNNY   54  34  47 SW6       30.09F
WARSAW*        CLOUDY    50  34  53 SW3       30.09F
ANGOLA*        CLOUDY    48  36  61 W6        30.08F
FORT WAYNE     CLOUDY    49  34  56 W3        30.10F
HUNTINGTON*    CLOUDY   N/A N/A N/A SW3       30.09F
PERU/GRISSOM   CLOUDY    51  37  60 CALM      30.08F
MARION*        CLOUDY    49  31  50 W3        30.10F

$$
INZ028>050-302000-
CENTRAL INDIANA

CITY           SKY/WX    TMP DP  RH WIND       PRES   REMARKS
LAFAYETTE      MOSUNNY   51  33  50 SW7       30.09F
KOKOMO*        PTSUNNY   52  34  50 CALM      30.09F
MUNCIE*        PTSUNNY   50  33  52 N3        30.10F
INDIANAPOLIS   PTSUNNY   52  34  50 VRB3      30.09F

$$
MIZ043>046-050>051-056>058-064>065-071>073-077>080-302000-
SOUTHWEST LOWER MICHIGAN

CITY           SKY/WX    TMP DP  RH WIND       PRES   REMARKS
BATTLE CREEK   CLOUDY    49  35  58 SW12      30.07F
BENTON HARBOR  PTSUNNY   50  35  56 W14       30.08F
COLDWATER*     CLOUDY    49  37  61 SW7       30.08F
HILLSDALE*     CLOUDY    48  36  64 S3        30.07F
HOLLAND        CLOUDY    51  38  60 SW16      30.08F
GRAND RAPIDS   CLOUDY    49  38  65 SW12      30.06F
KALAMAZOO      CLOUDY    50  35  56 SW12      30.08F
STURGIS*       CLOUDY    48  36  61 SW5       30.07F
THREE RIVERS*  CLOUDY    50  35  56 W6        30.08F

$$
OHZ001>008-015>018-024>025-302000-
NORTHWEST OHIO

CITY           SKY/WX    TMP DP  RH WIND       PRES   REMARKS
WAUSEON*       CLOUDY    48  36  61 W5G12     30.10S
DEFIANCE       CLOUDY    49  36  61 SW5       30.10F
FINDLAY        CLOUDY    50  33  52 NW6       30.09F
TOLEDO EXPRESS CLOUDY    49  33  54 W5        30.10F
TOLEDO METCALF PTSUNNY   50  33  52 W6        30.10F
LIMA           CLOUDY    49  33  54 W6        30.10F

$$
AND FOR LAKE MICHIGAN COASTAL AND OPEN LAKE BUOY OBSERVATIONS

STATION/POSITION TEMP    WIND        PRES    VSBY  WAVE
                 AIR SEA DIR/SP/G                  HT/PER
                 (F)     (DEG/KT/KT) (MB)    (MI)  (FT/S)
CALUMET HARBOR    49     180/  6/ 12 1017.3F
MICHIGAN CITY     49     210/ 11/ 12   N/A
SAINT JOSEPH      51     210/ 12/ 15 1018.6F
SOUTH LAKE BUOY   48 53  240/ 12/ 16 1018.7F         2/ 4

$$
&&



USA.gov is the U.S. government's official web portal to all federal, state and local government web resources and services.